DECAYED

COSMOS 2251 DEB, 38190 (Decayed)

Orbit data source: Space-Track

COSMOS 2251 DEB, 38190 was space debris in LEO originally from a launch on Wed, 16 Jun 1993 UTC launched from the Plesetsk Missile And Space Complex (PKMTR). The debris from Iridium 33, an American commercial communications satellite, has been tracked extensively since its accidental collision with the defunct Russian satellite Cosmos 2251 in 2009. This event, occurring at high speed in low Earth orbit (LEO), generated thousands of pieces of space debris, significantly increasing the risk of further collisions. The Iridium 33 debris cloud has impacted space traffic management and orbital debris mitigation strategies, making it a subject of ongoing study in space situational awareness.

Not visible in the next 10 days
Identifier
38190, 1993-036BSE
Orbit
Decayed
Country
Flag of CISCIS
Related business
Manufacturer
Unknown
Mission
Decayed spacecraft
Bus & Motor
Unknown
Mass
Unknown
Launch date (UTC)
1993-06-16 (33 years ago)
Launch vehicle
Unknown
Launch site
Plesetsk Missile And Space Complex (PKMTR)
Object type
Payload
Rocket body
Debris
Shape & HBR
Unknown shape, 0.1 m
Radar Cross Section
Small (<0.1 m²)

Expand to show TLE details & history
Last TLE update: 11 months ago

TLE from 11 months ago
0 COSMOS 2251 DEB
1 38190U 93036BSE 25251.08150300  .00839291  00000-0  86413-2 0  9990
2 38190  74.0064 179.6019 0025138 191.7458 168.3178 15.61803593 45038
Epoch: 2025-09-08T01:57Z
TLE epoch observation values (Epoch: 2025-09-08T01:57:21.859Z)
Latitude
-0.00005°
Longitude
162.86906°
Altitude
401.855 km
Speed
7.66 km/s
True Right ascension
11h 58m 24s
True Declination
0° 00' 00"
Sunlit
Object was in daylight at epoch
Visualization orbit readout
Latitude
Unknown
Longitude
Unknown
Altitude
Unknown
Speed
Unknown
Apparent Right ascension
Unknown
Apparent Declination
Unknown
Sunlit
N/A
Visualization observer readout
Local Sidereal Time
15:22:26
Azimuth
Unknown
Elevation
Unknown
Doppler factor
Unknown
Orbital elements
Apogee altitude
396.925 km
Perigee altitude
362.948 km
Semi-major axis
6,758.074 km
Eccentricity
0.00251
Inclination
74.0064°
RAAN
179.6019°
Arg. of periapsis
191.7458°
True anomaly
168.37595°
Mean anomaly
168.3178°
Eccentric anomaly
168.34689°
Mean motion
3.90669 °/min
Orbital period
92.15 mins
BSTAR
0.0086413

Documentation

Showing up to 5 results
|